DW7780 Weather Reports


time (UTC)temp
F
wind
direction
speed
knots
gust
knots
rain 1hr
in
rain 24hr
in
rain mn
in
humidity
%
barometer
mb
20260905181534 77 74 0.0 2.6 0.00 0.00 0.00 64 1010.9
20260905180031 78 0 0.0 5.2 0.00 0.00 0.00 57 1011.0
20260905174535 78 0 0.0 4.3 0.00 0.00 0.00 61 1011.0
20260905173038 78 284 0.9 3.5 0.00 0.00 0.00 58 1011.0
20260905171531 77 0 0.0 6.1 0.00 0.00 0.00 59 1011.0
20260905170032 77 0 0.0 7.0 0.00 0.00 0.00 60 1011.1
20260905164533 76 269 0.0 5.2 0.00 0.00 0.00 59 1011.3
20260905163033 76 253 0.0 7.0 0.00 0.00 0.00 62 1011.6
20260905161534 76 0 1.7 8.7 0.00 0.00 0.00 61 1011.5
20260905160031 75 70 0.0 3.5 0.00 0.00 0.00 62 1011.7
20260905154531 75 0 0.0 3.5 0.00 0.00 0.00 66 1011.6
20260905153036 75 0 0.0 7.8 0.00 0.00 0.00 65 1011.7
20260905151535 75 0 0.0 6.1 0.00 0.00 0.00 65 1011.5
20260905150031 75 294 0.9 5.2 0.00 0.00 0.00 66 1011.5
20260905144535 74 0 0.0 7.0 0.00 0.00 0.00 65 1011.3
20260905143034 74 0 0.0 6.1 0.00 0.00 0.00 66 1011.5
20260905141541 73 298 0.9 5.2 0.00 0.00 0.00 68 1011.5
20260905140034 73 0 0.0 7.0 0.00 0.00 0.00 70 1011.4
20260905134535 73 0 0.0 4.3 0.00 0.00 0.00 71 1011.4
20260905133034 72 0 0.0 0.0 0.00 0.00 0.00 77 1011.3
20260905131545 71 0 0.0 0.0 0.00 0.00 0.00 79 1011.3
20260905130035 70 0 0.0 0.0 0.00 0.00 0.00 81 1011.4
20260905124544 69 0 0.0 0.0 0.00 0.00 0.00 84 1011.4
20260905123042 69 0 0.0 0.0 0.00 0.00 0.00 87 1011.6
20260905121534 68 0 0.0 0.0 0.00 0.00 0.00 87 1011.6
20260905120034 68 0 0.0 0.0 0.00 0.00 0.00 87 1011.7
20260905114541 68 0 0.0 0.0 0.00 0.00 0.00 87 1011.5
20260905113039 68 0 0.0 0.0 0.00 0.00 0.00 87 1011.3
20260905111540 68 0 0.0 0.0 0.00 0.00 0.00 86 1011.2
20260905110031 68 0 0.0 0.0 0.00 0.00 0.00 86 1011.1
20260905104530 68 0 0.0 0.0 0.00 0.00 0.00 86 1010.9
20260905103033 68 0 0.0 0.0 0.00 0.00 0.00 85 1010.7
20260905101539 68 0 0.0 0.0 0.00 0.00 0.00 85 1010.6
20260905100034 69 0 0.0 0.0 0.00 0.00 0.00 85 1010.6
20260905094531 69 0 0.0 0.0 0.00 0.00 0.00 86 1010.5
20260905093035 69 0 0.0 0.0 0.00 0.00 0.00 85 1010.7
20260905091531 70 0 0.0 0.0 0.00 0.00 0.00 84 1010.6
20260905090035 70 0 0.0 0.0 0.00 0.00 0.00 83 1010.5
20260905084556 70 0 0.0 0.0 0.00 0.00 0.00 81 1010.5
20260905083031 70 0 0.0 0.0 0.00 0.00 0.00 80 1010.3
20260905081531 70 0 0.0 0.0 0.00 0.00 0.00 81 1010.1
20260905080034 70 0 0.0 0.0 0.00 0.00 0.00 82 1010.3
20260905074533 70 0 0.0 0.0 0.00 0.00 0.00 85 1010.4
20260905073035 70 0 0.0 0.0 0.00 0.00 0.00 84 1010.3
20260905071531 70 0 0.0 0.0 0.00 0.00 0.00 85 1010.6
20260905070033 70 0 0.0 0.0 0.00 0.00 0.00 87 1010.6
20260905064532 70 0 0.0 0.0 0.00 0.00 0.00 86 1010.5
20260905063032 70 0 0.0 0.0 0.00 0.00 0.00 86 1010.6
20260905061533 71 0 0.0 0.0 0.00 0.00 0.00 87 1010.6
20260905060035 71 0 0.0 0.0 0.00 0.00 0.00 88 1010.7
20260905054531 71 0 0.0 0.0 0.00 0.02 0.00 89 1010.8
20260905053032 71 0 0.0 0.0 0.00 0.02 0.00 89 1011.0
20260905051537 71 0 0.0 0.0 0.00 0.02 0.00 88 1011.3
20260905050034 71 0 0.0 0.0 0.00 0.02 0.00 88 1011.2
20260905044535 72 0 0.0 0.0 0.00 0.02 0.00 88 1011.1
20260905043033 72 0 0.0 0.0 0.00 0.02 0.00 90 1011.2
20260905041536 72 0 0.0 0.0 0.00 0.02 0.00 90 1011.3
20260905040034 72 0 0.0 0.0 0.00 0.02 0.00 90 1011.4
20260905034539 72 0 0.0 0.0 0.00 0.02 0.02 91 1011.4
20260905033033 72 0 0.0 0.0 0.00 0.02 0.02 91 1011.4
20260905031537 73 0 0.0 0.0 0.00 0.02 0.02 91 1011.3
20260905030037 73 0 0.0 0.0 0.00 0.02 0.02 90 1011.3
20260905024534 73 0 0.0 0.0 0.00 0.02 0.02 90 1011.1
20260905023039 73 0 0.0 0.0 0.00 0.02 0.02 91 1011.3
20260905021540 73 0 0.0 0.0 0.00 0.02 0.02 90 1011.2
20260905020034 73 0 0.0 0.0 0.00 0.02 0.02 90 1011.3
20260905014534 73 0 0.0 0.0 0.00 0.02 0.02 90 1011.4
20260905013033 74 0 0.0 0.0 0.00 0.02 0.02 90 1011.3
20260905011536 74 0 0.0 0.0 0.00 0.02 0.02 90 1011.3
20260905010033 74 0 0.0 0.0 0.00 0.02 0.02 90 1011.3
20260905004540 74 0 0.0 0.0 0.00 0.02 0.02 89 1011.2
20260905003034 74 0 0.0 0.0 0.00 0.02 0.02 88 1011.2
20260905001531 75 0 0.0 0.0 0.00 0.02 0.02 87 1011.0
20260905000033 75 0 0.0 0.0 0.00 0.02 0.02 87 1010.8
20260904234545 76 0 0.0 0.0 0.00 0.02 0.02 86 1010.7
20260904233051 76 0 0.0 0.0 0.00 0.02 0.02 84 1010.7
20260904231534 77 0 0.0 0.0 0.00 0.02 0.02 85 1010.6
20260904230035 77 0 0.0 0.0 0.00 0.02 0.02 84 1010.7
20260904224541 78 0 0.0 0.0 0.00 0.03 0.02 83 1010.7
20260904223040 78 0 0.0 0.0 0.00 0.03 0.02 81 1011.0
20260904221533 79 0 0.0 0.0 0.00 0.03 0.02 81 1011.0
20260904220034 80 0 0.0 0.9 0.00 0.03 0.02 80 1011.2
20260904214540 81 0 0.0 0.0 0.00 0.03 0.02 77 1010.9
20260904213036 82 0 0.0 2.6 0.00 0.03 0.02 72 1011.0
20260904211532 82 0 0.0 1.7 0.00 0.03 0.02 72 1010.9
20260904210040 82 0 0.0 2.6 0.00 0.03 0.02 69 1010.8
20260904204534 82 0 0.0 0.9 0.00 0.03 0.02 70 1011.0
20260904203033 82 0 0.0 3.5 0.00 0.03 0.02 72 1011.1
20260904201535 82 0 0.0 1.7 0.00 0.03 0.02 75 1011.1
20260904200035 82 0 0.0 5.2 0.00 0.03 0.02 70 1011.4
20260904194540 82 0 0.0 3.5 0.00 0.03 0.02 69 1011.5
20260904193044 82 0 0.0 2.6 0.00 0.03 0.02 72 1011.8
20260904191533 82 281 0.0 5.2 0.00 0.03 0.02 71 1012.0
20260904190036 82 0 0.0 1.7 0.00 0.03 0.02 71 1012.1
20260904184538 81 262 0.0 3.5 0.00 0.03 0.02 71 1012.3
20260904183032 80 0 0.0 0.0 0.00 0.03 0.02 74 1012.4